Time,TemperatureF,DewpointF,PressureIn,WindDirection,WindDirectionDegrees,WindSpeedMPH,WindSpeedGustMPH,Humidity,HourlyPrecipIn,Conditions,Clouds,dailyrainin,SoftwareType,DateUTC
2013-01-22 00:00:00,35.0,16.3,30.08,SSW,206,7.0,14.0,46,0.00,,,0.00,WeatherCatV1.11B39,2013-01-22 05:00:00,
2013-01-22 00:05:00,34.9,16.2,30.08,SW,227,7.0,7.0,46,0.00,,,0.00,WeatherCatV1.11B39,2013-01-22 05:05:00,
2013-01-22 00:10:00,34.9,16.2,30.08,WSW,248,7.0,8.0,46,0.00,,,0.00,WeatherCatV1.11B39,2013-01-22 05:10:00,
2013-01-22 00:15:00,34.8,16.2,30.08,WNW,298,6.0,7.0,46,0.00,,,0.00,WeatherCatV1.11B39,2013-01-22 05:15:00,
2013-01-22 00:20:00,34.7,16.1,30.08,SSW,201,2.0,7.0,46,0.00,,,0.00,WeatherCatV1.11B39,2013-01-22 05:20:00,
2013-01-22 00:25:00,34.6,16.0,30.08,West,277,8.0,16.0,46,0.00,,,0.00,WeatherCatV1.11B39,2013-01-22 05:25:00,
2013-01-22 00:30:00,34.4,15.8,30.09,SW,225,7.0,11.0,46,0.00,,,0.00,WeatherCatV1.11B39,2013-01-22 05:30:00,
2013-01-22 00:35:00,34.4,16.3,30.08,WSW,251,4.0,12.0,47,0.00,,,0.00,WeatherCatV1.11B39,2013-01-22 05:35:00,
2013-01-22 00:40:00,34.3,16.2,30.08,WNW,292,2.0,9.0,47,0.00,,,0.00,WeatherCatV1.11B39,2013-01-22 05:40:00,
2013-01-22 00:45:00,34.1,16.5,30.08,NE,56,1.0,4.0,48,0.00,,,0.00,WeatherCatV1.11B39,2013-01-22 05:45:00,
2013-01-22 00:50:00,34.0,15.9,30.08,West,261,10.0,16.0,47,0.00,,,0.00,WeatherCatV1.11B39,2013-01-22 05:50:00,
2013-01-22 00:54:00,34.1,15.5,30.08,SSW,208,8.0,10.0,46,0.00,,,0.00,WeatherCatV1.11B39,2013-01-22 05:54:00,
2013-01-22 00:59:00,34.0,15.9,30.07,SSW,192,9.0,9.0,47,0.00,,,0.00,WeatherCatV1.11B39,2013-01-22 05:59:00,
2013-01-22 01:04:00,33.9,15.8,30.07,WNW,282,12.0,15.0,47,0.00,,,0.00,WeatherCatV1.11B39,2013-01-22 06:04:00,
2013-01-22 01:09:00,33.8,15.2,30.07,SW,227,11.0,15.0,46,0.00,,,0.00,WeatherCatV1.11B39,2013-01-22 06:09:00,
2013-01-22 01:14:00,33.7,15.1,30.07,SW,232,5.0,11.0,46,0.00,,,0.00,WeatherCatV1.11B39,2013-01-22 06:14:00,
2013-01-22 01:19:00,33.6,14.6,30.07,WNW,296,11.0,20.0,45,0.00,,,0.00,WeatherCatV1.11B39,2013-01-22 06:19:00,
2013-01-22 01:24:00,33.4,14.4,30.07,SW,234,11.0,18.0,45,0.00,,,0.00,WeatherCatV1.11B39,2013-01-22 06:24:00,
2013-01-22 01:29:00,33.3,13.8,30.07,WNW,292,7.0,22.0,44,0.00,,,0.00,WeatherCatV1.11B39,2013-01-22 06:29:00,
2013-01-22 01:34:00,33.2,14.2,30.07,SSW,212,6.0,11.0,45,0.00,,,0.00,WeatherCatV1.11B39,2013-01-22 06:34:00,
2013-01-22 01:39:00,33.1,13.6,30.07,SSW,207,3.0,11.0,44,0.00,,,0.00,WeatherCatV1.11B39,2013-01-22 06:39:00,
2013-01-22 01:44:00,33.0,13.5,30.07,SW,225,6.0,9.0,44,0.00,,,0.00,WeatherCatV1.11B39,2013-01-22 06:44:00,
2013-01-22 01:49:00,33.0,13.5,30.07,WNW,294,4.0,6.0,44,0.00,,,0.00,WeatherCatV1.11B39,2013-01-22 06:49:00,
2013-01-22 01:54:00,32.8,13.8,30.07,SSE,163,2.0,6.0,45,0.00,,,0.00,WeatherCatV1.11B39,2013-01-22 06:54:00,
2013-01-22 01:59:00,32.6,13.1,30.08,South,188,4.0,7.0,44,0.00,,,0.00,WeatherCatV1.11B39,2013-01-22 06:59:00,
2013-01-22 02:04:00,32.5,13.5,30.08,South,189,4.0,7.0,45,0.00,,,0.00,WeatherCatV1.11B39,2013-01-22 07:04:00,
2013-01-22 02:09:00,32.3,13.4,30.08,SE,142,6.0,6.0,45,0.00,,,0.00,WeatherCatV1.11B39,2013-01-22 07:09:00,
2013-01-22 02:14:00,32.2,13.3,30.08,WSW,246,2.0,6.0,45,0.00,,,0.00,WeatherCatV1.11B39,2013-01-22 07:14:00,
2013-01-22 02:18:00,32.0,13.1,30.08,West,279,4.0,11.0,45,0.00,,,0.00,WeatherCatV1.11B39,2013-01-22 07:18:00,
2013-01-22 02:23:00,31.9,13.0,30.08,WNW,294,2.0,8.0,45,0.00,,,0.00,WeatherCatV1.11B39,2013-01-22 07:23:00,
2013-01-22 02:28:00,31.9,13.0,30.08,WNW,286,11.0,14.0,45,0.00,,,0.00,WeatherCatV1.11B39,2013-01-22 07:28:00,
2013-01-22 02:33:00,31.9,12.5,30.08,West,264,8.0,15.0,44,0.00,,,0.00,WeatherCatV1.11B39,2013-01-22 07:33:00,
2013-01-22 02:38:00,31.8,12.9,30.08,West,263,5.0,5.0,45,0.00,,,0.00,WeatherCatV1.11B39,2013-01-22 07:38:00,
2013-01-22 02:43:00,31.7,12.3,30.08,SW,230,7.0,9.0,44,0.00,,,0.00,WeatherCatV1.11B39,2013-01-22 07:43:00,
2013-01-22 02:48:00,31.6,12.7,30.09,West,261,5.0,13.0,45,0.00,,,0.00,WeatherCatV1.11B39,2013-01-22 07:48:00,
2013-01-22 02:53:00,31.5,13.1,30.08,West,261,6.0,12.0,46,0.00,,,0.00,WeatherCatV1.11B39,2013-01-22 07:53:00,
2013-01-22 02:58:00,31.5,12.6,30.09,SW,231,8.0,12.0,45,0.00,,,0.00,WeatherCatV1.11B39,2013-01-22 07:58:00,
2013-01-22 03:03:00,31.4,13.0,30.09,SW,217,4.0,14.0,46,0.00,,,0.00,WeatherCatV1.11B39,2013-01-22 08:03:00,
2013-01-22 03:08:00,31.2,12.9,30.08,SW,231,6.0,6.0,46,0.00,,,0.00,WeatherCatV1.11B39,2013-01-22 08:08:00,
2013-01-22 03:13:00,31.1,12.8,30.08,SSW,197,4.0,7.0,46,0.00,,,0.00,WeatherCatV1.11B39,2013-01-22 08:13:00,
2013-01-22 03:18:00,31.0,13.2,30.08,ESE,123,4.0,11.0,47,0.00,,,0.00,WeatherCatV1.11B39,2013-01-22 08:18:00,
2013-01-22 03:23:00,30.9,13.1,30.09,SW,234,2.0,6.0,47,0.00,,,0.00,WeatherCatV1.11B39,2013-01-22 08:23:00,
2013-01-22 03:28:00,30.8,13.0,30.08,SW,225,7.0,12.0,47,0.00,,,0.00,WeatherCatV1.11B39,2013-01-22 08:28:00,
2013-01-22 03:33:00,30.7,13.4,30.08,South,188,4.0,12.0,48,0.00,,,0.00,WeatherCatV1.11B39,2013-01-22 08:33:00,
2013-01-22 03:38:00,30.6,12.8,30.08,WSW,252,10.0,11.0,47,0.00,,,0.00,WeatherCatV1.11B39,2013-01-22 08:38:00,
2013-01-22 03:43:00,30.5,13.2,30.08,SSE,158,4.0,12.0,48,0.00,,,0.00,WeatherCatV1.11B39,2013-01-22 08:43:00,
2013-01-22 03:48:00,30.4,12.6,30.08,SW,221,5.0,6.0,47,0.00,,,0.00,WeatherCatV1.11B39,2013-01-22 08:48:00,
2013-01-22 03:53:00,30.2,12.9,30.08,SW,218,6.0,12.0,48,0.00,,,0.00,WeatherCatV1.11B39,2013-01-22 08:53:00,
2013-01-22 03:58:00,30.1,12.8,30.08,South,190,7.0,7.0,48,0.00,,,0.00,WeatherCatV1.11B39,2013-01-22 08:58:00,
2013-01-22 04:03:00,29.9,13.1,30.08,South,186,8.0,8.0,49,0.00,,,0.00,WeatherCatV1.11B39,2013-01-22 09:03:00,
2013-01-22 04:08:00,29.8,12.5,30.08,WSW,252,4.0,9.0,48,0.00,,,0.00,WeatherCatV1.11B39,2013-01-22 09:08:00,
2013-01-22 04:13:00,29.8,12.5,30.08,SSE,168,6.0,8.0,48,0.00,,,0.00,WeatherCatV1.11B39,2013-01-22 09:13:00,
2013-01-22 04:18:00,29.7,12.4,30.08,SSW,207,3.0,11.0,48,0.00,,,0.00,WeatherCatV1.11B39,2013-01-22 09:18:00,
2013-01-22 04:23:00,29.6,12.8,30.08,West,279,2.0,4.0,49,0.00,,,0.00,WeatherCatV1.11B39,2013-01-22 09:23:00,
2013-01-22 04:28:00,29.4,13.5,30.08,WNW,289,11.0,11.0,51,0.00,,,0.00,WeatherCatV1.11B39,2013-01-22 09:28:00,
2013-01-22 04:33:00,29.5,12.3,30.08,SSW,192,3.0,12.0,48,0.00,,,0.00,WeatherCatV1.11B39,2013-01-22 09:33:00,
2013-01-22 04:38:00,29.5,12.3,30.08,WSW,255,7.0,14.0,48,0.00,,,0.00,WeatherCatV1.11B39,2013-01-22 09:38:00,
2013-01-22 04:43:00,29.4,12.2,30.08,SSW,202,3.0,7.0,48,0.00,,,0.00,WeatherCatV1.11B39,2013-01-22 09:43:00,
2013-01-22 04:48:00,29.3,11.6,30.08,South,182,8.0,10.0,47,0.00,,,0.00,WeatherCatV1.11B39,2013-01-22 09:48:00,
2013-01-22 04:53:00,29.3,11.1,30.08,SSW,198,1.0,5.0,46,0.00,,,0.00,WeatherCatV1.11B39,2013-01-22 09:53:00,
2013-01-22 04:58:00,29.2,11.0,30.09,SSW,210,3.0,14.0,46,0.00,,,0.00,WeatherCatV1.11B39,2013-01-22 09:58:00,
2013-01-22 05:03:00,29.1,10.4,30.09,SW,225,2.0,5.0,45,0.00,,,0.00,WeatherCatV1.11B39,2013-01-22 10:03:00,
2013-01-22 05:08:00,29.1,9.4,30.09,WNW,284,2.0,9.0,43,0.00,,,0.00,WeatherCatV1.11B39,2013-01-22 10:08:00,
2013-01-22 05:13:00,29.1,8.9,30.09,SSW,205,10.0,10.0,42,0.00,,,0.00,WeatherCatV1.11B39,2013-01-22 10:13:00,
2013-01-22 05:18:00,29.0,8.8,30.09,WNW,284,7.0,7.0,42,0.00,,,0.00,WeatherCatV1.11B39,2013-01-22 10:18:00,
2013-01-22 05:23:00,29.0,9.3,30.09,WSW,256,5.0,9.0,43,0.00,,,0.00,WeatherCatV1.11B39,2013-01-22 10:23:00,
2013-01-22 05:28:00,28.9,9.2,30.09,South,169,4.0,13.0,43,0.00,,,0.00,WeatherCatV1.11B39,2013-01-22 10:28:00,
2013-01-22 05:33:00,28.9,8.7,30.09,SSW,203,8.0,19.0,42,0.00,,,0.00,WeatherCatV1.11B39,2013-01-22 10:33:00,
2013-01-22 05:38:00,28.9,9.2,30.09,SSW,213,7.0,10.0,43,0.00,,,0.00,WeatherCatV1.11B39,2013-01-22 10:38:00,
2013-01-22 05:43:00,28.9,9.2,30.09,SW,218,10.0,21.0,43,0.00,,,0.00,WeatherCatV1.11B39,2013-01-22 10:43:00,
2013-01-22 05:48:00,28.8,9.2,30.10,SW,223,2.0,5.0,43,0.00,,,0.00,WeatherCatV1.11B39,2013-01-22 10:48:00,
2013-01-22 05:53:00,28.7,9.6,30.10,SW,226,7.0,11.0,44,0.00,,,0.00,WeatherCatV1.11B39,2013-01-22 10:53:00,
2013-01-22 05:58:00,28.7,9.6,30.10,WSW,241,14.0,20.0,44,0.00,,,0.00,WeatherCatV1.11B39,2013-01-22 10:58:00,
2013-01-22 06:03:00,28.6,9.5,30.10,West,281,7.0,10.0,44,0.00,,,0.00,WeatherCatV1.11B39,2013-01-22 11:03:00,
2013-01-22 06:08:00,28.5,9.4,30.10,NW,304,8.0,12.0,44,0.00,,,0.00,WeatherCatV1.11B39,2013-01-22 11:08:00,
2013-01-22 06:13:00,28.5,9.4,30.10,WNW,300,12.0,14.0,44,0.00,,,0.00,WeatherCatV1.11B39,2013-01-22 11:13:00,
2013-01-22 06:18:00,28.3,9.7,30.10,West,279,0.0,7.0,45,0.00,,,0.00,WeatherCatV1.11B39,2013-01-22 11:18:00,
2013-01-22 06:23:00,28.2,10.1,30.10,WSW,248,2.0,7.0,46,0.00,,,0.00,WeatherCatV1.11B39,2013-01-22 11:23:00,
2013-01-22 06:28:00,28.1,10.0,30.11,West,278,2.0,5.0,46,0.00,,,0.00,WeatherCatV1.11B39,2013-01-22 11:28:00,
2013-01-22 06:33:00,28.0,9.9,30.11,SSW,193,3.0,7.0,46,0.00,,,0.00,WeatherCatV1.11B39,2013-01-22 11:33:00,
2013-01-22 06:38:00,28.0,9.9,30.11,WNW,292,14.0,14.0,46,0.00,,,0.00,WeatherCatV1.11B39,2013-01-22 11:38:00,
2013-01-22 06:43:00,28.0,9.9,30.11,WNW,301,6.0,9.0,46,0.00,,,0.00,WeatherCatV1.11B39,2013-01-22 11:43:00,
2013-01-22 06:48:00,27.9,9.8,30.11,SSW,209,4.0,9.0,46,0.00,,,0.00,WeatherCatV1.11B39,2013-01-22 11:48:00,
2013-01-22 06:53:00,27.8,9.7,30.12,South,175,4.0,4.0,46,0.00,,,0.00,WeatherCatV1.11B39,2013-01-22 11:53:00,
2013-01-22 06:58:00,27.7,10.1,30.12,SSW,211,8.0,8.0,47,0.00,,,0.00,WeatherCatV1.11B39,2013-01-22 11:58:00,
2013-01-22 07:03:00,27.6,10.0,30.12,SSW,213,7.0,9.0,47,0.00,,,0.00,WeatherCatV1.11B39,2013-01-22 12:03:00,
2013-01-22 07:08:00,27.6,10.0,30.12,South,182,1.0,11.0,47,0.00,,,0.00,WeatherCatV1.11B39,2013-01-22 12:08:00,
2013-01-22 07:13:00,27.5,9.9,30.12,SSW,213,2.0,5.0,47,0.00,,,0.00,WeatherCatV1.11B39,2013-01-22 12:13:00,
2013-01-22 07:16:00,27.5,10.4,30.12,West,273,6.0,9.0,48,0.00,,,0.00,WeatherCatV1.11B39,2013-01-22 12:16:00,
2013-01-22 07:21:00,27.4,9.4,30.12,West,278,6.0,11.0,46,0.00,,,0.00,WeatherCatV1.11B39,2013-01-22 12:21:00,
2013-01-22 07:26:00,27.5,9.5,30.12,West,276,13.0,13.0,46,0.00,,,0.00,WeatherCatV1.11B39,2013-01-22 12:26:00,
2013-01-22 07:31:00,27.4,9.4,30.13,SW,218,5.0,6.0,46,0.00,,,0.00,WeatherCatV1.11B39,2013-01-22 12:31:00,
2013-01-22 07:36:00,27.4,9.4,30.13,South,184,8.0,8.0,46,0.00,,,0.00,WeatherCatV1.11B39,2013-01-22 12:36:00,
2013-01-22 07:41:00,27.3,9.8,30.13,SW,217,3.0,13.0,47,0.00,,,0.00,WeatherCatV1.11B39,2013-01-22 12:41:00,
2013-01-22 07:46:00,27.2,9.2,30.14,South,190,5.0,9.0,46,0.00,,,0.00,WeatherCatV1.11B39,2013-01-22 12:46:00,
2013-01-22 07:51:00,27.1,9.1,30.14,SW,217,4.0,11.0,46,0.00,,,0.00,WeatherCatV1.11B39,2013-01-22 12:51:00,
2013-01-22 07:56:00,27.0,9.5,30.14,WNW,284,5.0,7.0,47,0.00,,,0.00,WeatherCatV1.11B39,2013-01-22 12:56:00,
2013-01-22 08:01:00,27.0,10.0,30.14,WSW,251,3.0,10.0,48,0.00,,,0.00,WeatherCatV1.11B39,2013-01-22 13:01:00,
2013-01-22 08:06:00,27.1,9.6,30.14,WSW,255,7.0,11.0,47,0.00,,,0.00,WeatherCatV1.11B39,2013-01-22 13:06:00,
2013-01-22 08:11:00,27.2,9.2,30.15,SW,214,9.0,9.0,46,0.00,,,0.00,WeatherCatV1.11B39,2013-01-22 13:11:00,
2013-01-22 08:16:00,27.3,8.8,30.14,SSW,207,11.0,13.0,45,0.00,,,0.00,WeatherCatV1.11B39,2013-01-22 13:16:00,
2013-01-22 08:21:00,27.4,9.4,30.15,SW,220,5.0,7.0,46,0.00,,,0.00,WeatherCatV1.11B39,2013-01-22 13:21:00,
2013-01-22 08:26:00,27.5,9.0,30.15,WSW,237,6.0,9.0,45,0.00,,,0.00,WeatherCatV1.11B39,2013-01-22 13:26:00,
2013-01-22 08:31:00,27.6,9.6,30.15,South,178,4.0,7.0,46,0.00,,,0.00,WeatherCatV1.11B39,2013-01-22 13:31:00,
2013-01-22 08:36:00,27.7,9.6,30.15,SSW,199,4.0,7.0,46,0.00,,,0.00,WeatherCatV1.11B39,2013-01-22 13:36:00,
2013-01-22 08:41:00,27.9,9.3,30.16,WSW,258,1.0,10.0,45,0.00,,,0.00,WeatherCatV1.11B39,2013-01-22 13:41:00,
2013-01-22 08:46:00,28.1,8.5,30.16,SW,214,8.0,12.0,43,0.00,,,0.00,WeatherCatV1.11B39,2013-01-22 13:46:00,
2013-01-22 08:51:00,28.3,8.7,30.17,SSW,204,8.0,9.0,43,0.00,,,0.00,WeatherCatV1.11B39,2013-01-22 13:51:00,
2013-01-22 08:56:00,28.4,8.3,30.17,SW,223,6.0,24.0,42,0.00,,,0.00,WeatherCatV1.11B39,2013-01-22 13:56:00,
2013-01-22 09:01:00,28.4,8.3,30.17,WNW,292,8.0,8.0,42,0.00,,,0.00,WeatherCatV1.11B39,2013-01-22 14:01:00,
2013-01-22 09:06:00,28.4,8.3,30.17,SW,222,8.0,11.0,42,0.00,,,0.00,WeatherCatV1.11B39,2013-01-22 14:06:00,
2013-01-22 09:11:00,28.4,8.3,30.18,WSW,243,13.0,14.0,42,0.00,,,0.00,WeatherCatV1.11B39,2013-01-22 14:11:00,
2013-01-22 09:16:00,28.4,8.3,30.18,SW,229,4.0,13.0,42,0.00,,,0.00,WeatherCatV1.11B39,2013-01-22 14:16:00,
2013-01-22 09:21:00,28.5,8.4,30.19,West,261,4.0,10.0,42,0.00,,,0.00,WeatherCatV1.11B39,2013-01-22 14:21:00,
2013-01-22 09:26:00,28.7,8.5,30.19,SW,217,4.0,11.0,42,0.00,,,0.00,WeatherCatV1.11B39,2013-01-22 14:26:00,
2013-01-22 09:31:00,28.7,8.5,30.19,West,267,8.0,14.0,42,0.00,,,0.00,WeatherCatV1.11B39,2013-01-22 14:31:00,
2013-01-22 09:36:00,28.7,8.5,30.19,WSW,256,3.0,4.0,42,0.00,,,0.00,WeatherCatV1.11B39,2013-01-22 14:36:00,
2013-01-22 09:41:00,29.0,8.8,30.20,WSW,237,6.0,6.0,42,0.00,,,0.00,WeatherCatV1.11B39,2013-01-22 14:41:00,
2013-01-22 09:46:00,29.2,8.5,30.20,West,273,4.0,7.0,41,0.00,,,0.00,WeatherCatV1.11B39,2013-01-22 14:46:00,
2013-01-22 09:51:00,29.5,8.7,30.20,NW,313,14.0,16.0,41,0.00,,,0.00,WeatherCatV1.11B39,2013-01-22 14:51:00,
2013-01-22 09:56:00,29.5,8.7,30.20,SSW,209,8.0,10.0,41,0.00,,,0.00,WeatherCatV1.11B39,2013-01-22 14:56:00,
2013-01-22 10:01:00,29.5,9.8,30.20,SW,227,10.0,11.0,43,0.00,,,0.00,WeatherCatV1.11B39,2013-01-22 15:01:00,
2013-01-22 10:06:00,29.9,9.1,30.20,SW,227,4.0,6.0,41,0.00,,,0.00,WeatherCatV1.11B39,2013-01-22 15:06:00,
2013-01-22 10:11:00,30.0,8.6,30.21,SW,221,5.0,9.0,40,0.00,,,0.00,WeatherCatV1.11B39,2013-01-22 15:11:00,
2013-01-22 10:16:00,30.1,8.2,30.21,SW,225,5.0,15.0,39,0.00,,,0.00,WeatherCatV1.11B39,2013-01-22 15:16:00,
2013-01-22 10:21:00,30.3,8.9,30.22,SW,234,5.0,12.0,40,0.00,,,0.00,WeatherCatV1.11B39,2013-01-22 15:21:00,
2013-01-22 10:26:00,30.6,9.2,30.22,SW,231,15.0,15.0,40,0.00,,,0.00,WeatherCatV1.11B39,2013-01-22 15:26:00,
2013-01-22 10:31:00,30.7,8.7,30.23,NW,315,18.0,18.0,39,0.00,,,0.00,WeatherCatV1.11B39,2013-01-22 15:31:00,
2013-01-22 10:36:00,30.8,8.2,30.22,NW,313,15.0,21.0,38,0.00,,,0.00,WeatherCatV1.11B39,2013-01-22 15:36:00,
2013-01-22 10:41:00,30.9,8.3,30.23,WNW,298,7.0,16.0,38,0.00,,,0.00,WeatherCatV1.11B39,2013-01-22 15:41:00,
2013-01-22 10:45:00,31.5,9.4,30.22,WSW,243,4.0,10.0,39,0.00,,,0.00,WeatherCatV1.11B39,2013-01-22 15:45:00,
2013-01-22 10:50:00,31.8,8.5,30.22,WSW,245,4.0,8.0,37,0.00,,,0.00,WeatherCatV1.11B39,2013-01-22 15:50:00,
2013-01-22 10:55:00,32.1,10.0,30.22,SW,221,2.0,8.0,39,0.00,,,0.00,WeatherCatV1.11B39,2013-01-22 15:55:00,
2013-01-22 11:00:00,32.6,8.6,30.23,SW,218,7.0,13.0,36,0.00,,,0.00,WeatherCatV1.11B39,2013-01-22 16:00:00,
2013-01-22 11:05:00,32.8,8.8,30.23,WSW,253,11.0,14.0,36,0.00,,,0.00,WeatherCatV1.11B39,2013-01-22 16:05:00,
2013-01-22 11:10:00,32.9,8.9,30.24,WNW,303,5.0,9.0,36,0.00,,,0.00,WeatherCatV1.11B39,2013-01-22 16:10:00,
2013-01-22 11:15:00,33.1,8.5,30.23,SW,221,4.0,15.0,35,0.00,,,0.00,WeatherCatV1.11B39,2013-01-22 16:15:00,
2013-01-22 11:20:00,33.3,8.6,30.23,SW,233,5.0,10.0,35,0.00,,,0.00,WeatherCatV1.11B39,2013-01-22 16:20:00,
2013-01-22 11:25:00,33.7,9.0,30.23,West,265,4.0,11.0,35,0.00,,,0.00,WeatherCatV1.11B39,2013-01-22 16:25:00,
2013-01-22 11:30:00,33.9,8.5,30.23,WSW,247,12.0,17.0,34,0.00,,,0.00,WeatherCatV1.11B39,2013-01-22 16:30:00,
2013-01-22 11:35:00,33.7,7.7,30.22,West,268,6.0,20.0,33,0.00,,,0.00,WeatherCatV1.11B39,2013-01-22 16:35:00,
2013-01-22 11:40:00,34.0,8.6,30.22,WNW,295,8.0,10.0,34,0.00,,,0.00,WeatherCatV1.11B39,2013-01-22 16:40:00,
2013-01-22 11:45:00,33.9,7.2,30.22,West,278,9.0,20.0,32,0.00,,,0.00,WeatherCatV1.11B39,2013-01-22 16:45:00,
2013-01-22 11:50:00,34.3,8.2,30.22,WSW,238,12.0,14.0,33,0.00,,,0.00,WeatherCatV1.11B39,2013-01-22 16:50:00,
2013-01-22 11:55:00,34.2,7.5,30.22,WNW,296,18.0,19.0,32,0.00,,,0.00,WeatherCatV1.11B39,2013-01-22 16:55:00,
2013-01-22 12:00:00,34.6,8.5,30.22,WSW,257,7.0,9.0,33,0.00,,,0.00,WeatherCatV1.11B39,2013-01-22 17:00:00,
2013-01-22 12:05:00,34.4,7.6,30.22,WNW,285,6.0,15.0,32,0.00,,,0.00,WeatherCatV1.11B39,2013-01-22 17:05:00,
2013-01-22 12:10:00,34.4,7.6,30.22,North,5,3.0,15.0,32,0.00,,,0.00,WeatherCatV1.11B39,2013-01-22 17:10:00,
2013-01-22 12:15:00,34.9,8.1,30.22,WNW,300,4.0,14.0,32,0.00,,,0.00,WeatherCatV1.11B39,2013-01-22 17:15:00,
2013-01-22 12:20:00,35.1,8.2,30.22,WNW,283,8.0,14.0,32,0.00,,,0.00,WeatherCatV1.11B39,2013-01-22 17:20:00,
2013-01-22 12:25:00,35.4,7.8,30.21,WNW,286,12.0,20.0,31,0.00,,,0.00,WeatherCatV1.11B39,2013-01-22 17:25:00,
2013-01-22 12:30:00,35.4,7.8,30.22,WSW,242,11.0,18.0,31,0.00,,,0.00,WeatherCatV1.11B39,2013-01-22 17:30:00,
2013-01-22 12:35:00,35.5,9.3,30.22,West,262,5.0,15.0,33,0.00,,,0.00,WeatherCatV1.11B39,2013-01-22 17:35:00,
2013-01-22 12:40:00,35.6,8.0,30.20,West,265,12.0,12.0,31,0.00,,,0.00,WeatherCatV1.11B39,2013-01-22 17:40:00,
2013-01-22 12:45:00,36.0,8.3,30.20,WNW,303,13.0,20.0,31,0.00,,,0.00,WeatherCatV1.11B39,2013-01-22 17:45:00,
2013-01-22 12:50:00,36.3,10.0,30.20,WNW,294,5.0,22.0,33,0.00,,,0.00,WeatherCatV1.11B39,2013-01-22 17:50:00,
2013-01-22 12:55:00,36.6,8.1,30.20,WSW,255,8.0,19.0,30,0.00,,,0.00,WeatherCatV1.11B39,2013-01-22 17:55:00,
2013-01-22 13:00:00,36.9,9.8,30.19,WSW,240,5.0,10.0,32,0.00,,,0.00,WeatherCatV1.11B39,2013-01-22 18:00:00,
2013-01-22 13:05:00,36.9,9.8,30.19,West,267,11.0,11.0,32,0.00,,,0.00,WeatherCatV1.11B39,2013-01-22 18:05:00,
2013-01-22 13:10:00,37.1,9.3,30.19,West,271,15.0,16.0,31,0.00,,,0.00,WeatherCatV1.11B39,2013-01-22 18:10:00,
2013-01-22 13:15:00,37.4,9.6,30.20,SSW,209,7.0,18.0,31,0.00,,,0.00,WeatherCatV1.11B39,2013-01-22 18:15:00,
2013-01-22 13:20:00,38.1,11.6,30.19,WSW,248,6.0,11.0,33,0.00,,,0.00,WeatherCatV1.11B39,2013-01-22 18:20:00,
2013-01-22 13:25:00,38.1,9.4,30.19,West,266,6.0,16.0,30,0.00,,,0.00,WeatherCatV1.11B39,2013-01-22 18:25:00,
2013-01-22 13:30:00,38.1,10.2,30.19,WNW,290,5.0,10.0,31,0.00,,,0.00,WeatherCatV1.11B39,2013-01-22 18:30:00,
2013-01-22 13:35:00,38.3,11.1,30.18,WSW,257,8.0,8.0,32,0.00,,,0.00,WeatherCatV1.11B39,2013-01-22 18:35:00,
2013-01-22 13:40:00,38.2,10.3,30.19,West,263,5.0,6.0,31,0.00,,,0.00,WeatherCatV1.11B39,2013-01-22 18:40:00,
2013-01-22 13:45:00,38.6,11.3,30.18,WSW,245,5.0,11.0,32,0.00,,,0.00,WeatherCatV1.11B39,2013-01-22 18:45:00,
2013-01-22 13:50:00,38.6,10.6,30.18,SW,215,4.0,18.0,31,0.00,,,0.00,WeatherCatV1.11B39,2013-01-22 18:50:00,
2013-01-22 13:55:00,38.9,10.9,30.17,West,277,8.0,20.0,31,0.00,,,0.00,WeatherCatV1.11B39,2013-01-22 18:55:00,
2013-01-22 14:00:00,39.1,11.8,30.17,West,279,8.0,16.0,32,0.00,,,0.00,WeatherCatV1.11B39,2013-01-22 19:00:00,
2013-01-22 14:05:00,39.1,10.3,30.17,WNW,293,7.0,20.0,30,0.00,,,0.00,WeatherCatV1.11B39,2013-01-22 19:05:00,
2013-01-22 14:10:00,39.3,11.9,30.17,WNW,295,7.0,22.0,32,0.00,,,0.00,WeatherCatV1.11B39,2013-01-22 19:10:00,
2013-01-22 14:15:00,39.6,11.5,30.17,WNW,289,18.0,19.0,31,0.00,,,0.00,WeatherCatV1.11B39,2013-01-22 19:15:00,
2013-01-22 14:20:00,39.6,10.8,30.16,South,175,1.0,22.0,30,0.00,,,0.00,WeatherCatV1.11B39,2013-01-22 19:20:00,
2013-01-22 14:25:00,40.0,11.8,30.16,West,269,6.0,13.0,31,0.00,,,0.00,WeatherCatV1.11B39,2013-01-22 19:25:00,
2013-01-22 14:30:00,40.0,11.8,30.16,WSW,256,5.0,14.0,31,0.00,,,0.00,WeatherCatV1.11B39,2013-01-22 19:30:00,
2013-01-22 14:35:00,40.2,11.3,30.17,SSW,209,8.0,15.0,30,0.00,,,0.00,WeatherCatV1.11B39,2013-01-22 19:35:00,
2013-01-22 14:40:00,40.3,11.4,30.17,West,274,11.0,14.0,30,0.00,,,0.00,WeatherCatV1.11B39,2013-01-22 19:40:00,
2013-01-22 14:45:00,40.4,11.4,30.17,West,277,18.0,23.0,30,0.00,,,0.00,WeatherCatV1.11B39,2013-01-22 19:45:00,
2013-01-22 14:50:00,40.7,13.2,30.17,WSW,238,10.0,11.0,32,0.00,,,0.00,WeatherCatV1.11B39,2013-01-22 19:50:00,
2013-01-22 14:55:00,40.7,11.7,30.17,West,278,13.0,20.0,30,0.00,,,0.00,WeatherCatV1.11B39,2013-01-22 19:55:00,
2013-01-22 15:00:00,40.5,11.5,30.17,NW,304,8.0,20.0,30,0.00,,,0.00,WeatherCatV1.11B39,2013-01-22 20:00:00,
2013-01-22 15:05:00,40.7,12.4,30.17,NW,323,7.0,17.0,31,0.00,,,0.00,WeatherCatV1.11B39,2013-01-22 20:05:00,
2013-01-22 15:10:00,40.6,11.6,30.17,SW,218,9.0,18.0,30,0.00,,,0.00,WeatherCatV1.11B39,2013-01-22 20:10:00,
2013-01-22 15:15:00,40.9,11.9,30.17,WNW,294,13.0,18.0,30,0.00,,,0.00,WeatherCatV1.11B39,2013-01-22 20:15:00,
2013-01-22 15:20:00,41.0,12.7,30.17,WSW,244,6.0,16.0,31,0.00,,,0.00,WeatherCatV1.11B39,2013-01-22 20:20:00,
2013-01-22 15:25:00,41.2,12.1,30.17,WNW,293,8.0,16.0,30,0.00,,,0.00,WeatherCatV1.11B39,2013-01-22 20:25:00,
2013-01-22 15:30:00,41.3,13.0,30.17,NW,305,13.0,15.0,31,0.00,,,0.00,WeatherCatV1.11B39,2013-01-22 20:30:00,
2013-01-22 15:35:00,41.7,13.3,30.17,West,267,2.0,13.0,31,0.00,,,0.00,WeatherCatV1.11B39,2013-01-22 20:35:00,
2013-01-22 15:40:00,41.9,12.8,30.17,WSW,244,3.0,11.0,30,0.00,,,0.00,WeatherCatV1.11B39,2013-01-22 20:40:00,
2013-01-22 15:45:00,41.9,12.8,30.17,West,259,6.0,16.0,30,0.00,,,0.00,WeatherCatV1.11B39,2013-01-22 20:45:00,
2013-01-22 15:50:00,41.7,11.8,30.17,WSW,246,6.0,14.0,29,0.00,,,0.00,WeatherCatV1.11B39,2013-01-22 20:50:00,
2013-01-22 15:55:00,41.6,13.2,30.17,WNW,294,13.0,16.0,31,0.00,,,0.00,WeatherCatV1.11B39,2013-01-22 20:55:00,
2013-01-22 16:00:00,41.5,12.4,30.18,West,271,4.0,14.0,30,0.00,,,0.00,WeatherCatV1.11B39,2013-01-22 21:00:00,
2013-01-22 16:04:00,41.5,12.4,30.18,SW,225,6.0,13.0,30,0.00,,,0.00,WeatherCatV1.11B39,2013-01-22 21:04:00,
2013-01-22 16:09:00,41.5,13.1,30.18,West,273,9.0,13.0,31,0.00,,,0.00,WeatherCatV1.11B39,2013-01-22 21:09:00,
2013-01-22 16:14:00,41.5,12.4,30.18,SW,225,8.0,9.0,30,0.00,,,0.00,WeatherCatV1.11B39,2013-01-22 21:14:00,
2013-01-22 16:19:00,41.3,12.2,30.18,NW,304,15.0,15.0,30,0.00,,,0.00,WeatherCatV1.11B39,2013-01-22 21:19:00,
2013-01-22 16:24:00,41.1,12.8,30.18,West,259,13.0,16.0,31,0.00,,,0.00,WeatherCatV1.11B39,2013-01-22 21:24:00,
2013-01-22 16:29:00,40.9,13.3,30.19,WNW,282,13.0,19.0,32,0.00,,,0.00,WeatherCatV1.11B39,2013-01-22 21:29:00,
2013-01-22 16:34:00,40.8,12.5,30.19,WNW,290,12.0,19.0,31,0.00,,,0.00,WeatherCatV1.11B39,2013-01-22 21:34:00,
2013-01-22 16:39:00,40.7,13.2,30.19,WNW,299,14.0,17.0,32,0.00,,,0.00,WeatherCatV1.11B39,2013-01-22 21:39:00,
2013-01-22 16:44:00,40.5,12.3,30.19,WSW,257,8.0,15.0,31,0.00,,,0.00,WeatherCatV1.11B39,2013-01-22 21:44:00,
2013-01-22 16:49:00,40.5,13.0,30.19,NW,313,7.0,11.0,32,0.00,,,0.00,WeatherCatV1.11B39,2013-01-22 21:49:00,
2013-01-22 16:54:00,40.4,12.9,30.19,NW,306,12.0,14.0,32,0.00,,,0.00,WeatherCatV1.11B39,2013-01-22 21:54:00,
2013-01-22 16:59:00,40.4,12.9,30.20,West,271,11.0,12.0,32,0.00,,,0.00,WeatherCatV1.11B39,2013-01-22 21:59:00,
2013-01-22 17:04:00,40.2,12.7,30.19,West,259,6.0,18.0,32,0.00,,,0.00,WeatherCatV1.11B39,2013-01-22 22:04:00,
2013-01-22 17:09:00,40.0,13.2,30.20,SW,226,8.0,12.0,33,0.00,,,0.00,WeatherCatV1.11B39,2013-01-22 22:09:00,
2013-01-22 17:14:00,39.8,13.1,30.20,WNW,298,8.0,13.0,33,0.00,,,0.00,WeatherCatV1.11B39,2013-01-22 22:14:00,
2013-01-22 17:19:00,39.8,13.7,30.20,WNW,284,5.0,11.0,34,0.00,,,0.00,WeatherCatV1.11B39,2013-01-22 22:19:00,
2013-01-22 17:21:00,39.7,13.0,30.20,WSW,258,4.0,6.0,33,0.00,,,0.00,WeatherCatV1.11B39,2013-01-22 22:21:00,
2013-01-22 17:26:00,39.5,12.8,30.19,WNW,298,11.0,15.0,33,0.00,,,0.00,WeatherCatV1.11B39,2013-01-22 22:26:00,
2013-01-22 17:31:00,39.0,13.0,30.20,West,259,4.0,9.0,34,0.00,,,0.00,WeatherCatV1.11B39,2013-01-22 22:31:00,
2013-01-22 17:36:00,38.8,12.9,30.20,WNW,298,6.0,9.0,34,0.00,,,0.00,WeatherCatV1.11B39,2013-01-22 22:36:00,
2013-01-22 17:41:00,38.5,13.3,30.20,West,276,4.0,5.0,35,0.00,,,0.00,WeatherCatV1.11B39,2013-01-22 22:41:00,
2013-01-22 17:46:00,38.2,13.0,30.20,WNW,289,8.0,8.0,35,0.00,,,0.00,WeatherCatV1.11B39,2013-01-22 22:46:00,
2013-01-22 17:51:00,37.9,12.7,30.20,NW,311,2.0,10.0,35,0.00,,,0.00,WeatherCatV1.11B39,2013-01-22 22:51:00,
2013-01-22 17:56:00,37.7,12.5,30.20,NW,307,9.0,9.0,35,0.00,,,0.00,WeatherCatV1.11B39,2013-01-22 22:56:00,
2013-01-22 18:01:00,37.3,12.8,30.21,West,280,6.0,11.0,36,0.00,,,0.00,WeatherCatV1.11B39,2013-01-22 23:01:00,
2013-01-22 18:06:00,37.0,13.2,30.21,WNW,289,1.0,6.0,37,0.00,,,0.00,WeatherCatV1.11B39,2013-01-22 23:06:00,
2013-01-22 18:11:00,36.8,12.4,30.21,WNW,296,2.0,4.0,36,0.00,,,0.00,WeatherCatV1.11B39,2013-01-22 23:11:00,
2013-01-22 18:16:00,36.5,12.7,30.21,WNW,285,6.0,6.0,37,0.00,,,0.00,WeatherCatV1.11B39,2013-01-22 23:16:00,
2013-01-22 18:21:00,36.1,13.0,30.21,WNW,295,2.0,8.0,38,0.00,,,0.00,WeatherCatV1.11B39,2013-01-22 23:21:00,
2013-01-22 18:26:00,35.9,12.8,30.21,West,266,2.0,9.0,38,0.00,,,0.00,WeatherCatV1.11B39,2013-01-22 23:26:00,
2013-01-22 18:31:00,35.7,12.6,30.22,WSW,255,4.0,7.0,38,0.00,,,0.00,WeatherCatV1.11B39,2013-01-22 23:31:00,
2013-01-22 18:36:00,35.5,13.0,30.22,West,271,5.0,8.0,39,0.00,,,0.00,WeatherCatV1.11B39,2013-01-22 23:36:00,
2013-01-22 18:41:00,35.3,12.8,30.22,West,275,2.0,6.0,39,0.00,,,0.00,WeatherCatV1.11B39,2013-01-22 23:41:00,
2013-01-22 18:46:00,35.1,12.7,30.22,West,267,2.0,7.0,39,0.00,,,0.00,WeatherCatV1.11B39,2013-01-22 23:46:00,
2013-01-22 18:51:00,34.8,14.1,30.22,West,271,2.0,4.0,42,0.00,,,0.00,WeatherCatV1.11B39,2013-01-22 23:51:00,
2013-01-22 18:56:00,34.6,12.2,30.22,West,273,2.0,4.0,39,0.00,,,0.00,WeatherCatV1.11B39,2013-01-22 23:56:00,
2013-01-22 19:01:00,34.5,12.1,30.22,West,273,2.0,5.0,39,0.00,,,0.00,WeatherCatV1.11B39,2013-01-23 00:01:00,
2013-01-22 19:07:00,34.3,11.9,30.23,West,277,6.0,7.0,39,0.00,,,0.00,WeatherCatV1.11B39,2013-01-23 00:07:00,
2013-01-22 19:12:00,34.3,12.5,30.23,NW,307,7.0,7.0,40,0.00,,,0.00,WeatherCatV1.11B39,2013-01-23 00:12:00,
2013-01-22 19:17:00,34.2,11.9,30.23,WSW,250,2.0,6.0,39,0.00,,,0.00,WeatherCatV1.11B39,2013-01-23 00:17:00,
2013-01-22 19:22:00,34.0,11.7,30.23,West,261,3.0,5.0,39,0.00,,,0.00,WeatherCatV1.11B39,2013-01-23 00:22:00,
2013-01-22 19:27:00,33.8,12.6,30.23,WSW,254,7.0,7.0,41,0.00,,,0.00,WeatherCatV1.11B39,2013-01-23 00:27:00,
2013-01-22 19:32:00,33.6,11.3,30.24,SW,233,2.0,7.0,39,0.00,,,0.00,WeatherCatV1.11B39,2013-01-23 00:32:00,
2013-01-22 19:37:00,33.4,11.1,30.24,WSW,247,3.0,7.0,39,0.00,,,0.00,WeatherCatV1.11B39,2013-01-23 00:37:00,
2013-01-22 19:42:00,33.3,11.0,30.24,West,260,4.0,7.0,39,0.00,,,0.00,WeatherCatV1.11B39,2013-01-23 00:42:00,
2013-01-22 19:47:00,33.1,11.4,30.24,WNW,300,5.0,7.0,40,0.00,,,0.00,WeatherCatV1.11B39,2013-01-23 00:47:00,
2013-01-22 19:52:00,33.0,11.3,30.25,West,259,4.0,6.0,40,0.00,,,0.00,WeatherCatV1.11B39,2013-01-23 00:52:00,
2013-01-22 19:57:00,32.8,11.2,30.25,SW,232,4.0,7.0,40,0.00,,,0.00,WeatherCatV1.11B39,2013-01-23 00:57:00,
2013-01-22 20:02:00,32.7,13.2,30.25,WSW,248,3.0,4.0,44,0.00,,,0.00,WeatherCatV1.11B39,2013-01-23 01:02:00,
2013-01-22 20:07:00,32.5,11.4,30.25,West,281,6.0,6.0,41,0.00,,,0.00,WeatherCatV1.11B39,2013-01-23 01:07:00,
2013-01-22 20:12:00,32.4,12.4,30.25,West,261,3.0,6.0,43,0.00,,,0.00,WeatherCatV1.11B39,2013-01-23 01:12:00,
2013-01-22 20:17:00,32.3,11.8,30.25,West,275,8.0,8.0,42,0.00,,,0.00,WeatherCatV1.11B39,2013-01-23 01:17:00,
2013-01-22 20:22:00,32.2,12.8,30.25,WSW,240,1.0,4.0,44,0.00,,,0.00,WeatherCatV1.11B39,2013-01-23 01:22:00,
2013-01-22 20:27:00,31.9,11.4,30.25,WSW,244,2.0,4.0,42,0.00,,,0.00,WeatherCatV1.11B39,2013-01-23 01:27:00,
2013-01-22 20:31:00,31.8,11.4,30.24,WSW,244,2.0,3.0,42,0.00,,,0.00,WeatherCatV1.11B39,2013-01-23 01:31:00,
2013-01-22 20:36:00,31.5,13.1,30.24,WSW,244,0.0,2.0,46,0.00,,,0.00,WeatherCatV1.11B39,2013-01-23 01:36:00,
2013-01-22 20:41:00,31.1,17.7,30.24,WSW,244,2.0,3.0,57,0.00,,,0.00,WeatherCatV1.11B39,2013-01-23 01:41:00,
2013-01-22 20:46:00,30.6,14.2,30.24,WSW,246,3.0,4.0,50,0.00,,,0.00,WeatherCatV1.11B39,2013-01-23 01:46:00,
2013-01-22 20:52:00,30.5,12.7,30.24,West,268,3.0,5.0,47,0.00,,,0.00,WeatherCatV1.11B39,2013-01-23 01:52:00,
2013-01-22 20:57:00,30.6,13.7,30.24,West,268,4.0,4.0,49,0.00,,,0.00,WeatherCatV1.11B39,2013-01-23 01:57:00,
2013-01-22 21:02:00,30.8,12.5,30.24,West,268,3.0,4.0,46,0.00,,,0.00,WeatherCatV1.11B39,2013-01-23 02:02:00,
2013-01-22 21:06:00,31.0,13.6,30.25,West,269,4.0,6.0,48,0.00,,,0.00,WeatherCatV1.11B39,2013-01-23 02:06:00,
2013-01-22 21:11:00,31.5,12.1,30.25,WNW,284,2.0,7.0,44,0.00,,,0.00,WeatherCatV1.11B39,2013-01-23 02:11:00,
2013-01-22 21:16:00,31.9,13.5,30.24,WNW,284,4.0,4.0,46,0.00,,,0.00,WeatherCatV1.11B39,2013-01-23 02:16:00,
2013-01-22 21:21:00,32.1,13.2,30.24,WNW,288,4.0,5.0,45,0.00,,,0.00,WeatherCatV1.11B39,2013-01-23 02:21:00,
2013-01-22 21:26:00,32.2,13.3,30.24,WNW,288,2.0,4.0,45,0.00,,,0.00,WeatherCatV1.11B39,2013-01-23 02:26:00,
2013-01-22 21:31:00,32.3,13.4,30.24,WNW,288,5.0,5.0,45,0.00,,,0.00,WeatherCatV1.11B39,2013-01-23 02:31:00,
2013-01-22 21:36:00,32.3,12.9,30.24,WNW,288,5.0,6.0,44,0.00,,,0.00,WeatherCatV1.11B39,2013-01-23 02:36:00,
2013-01-22 21:41:00,32.3,12.9,30.24,WNW,289,2.0,7.0,44,0.00,,,0.00,WeatherCatV1.11B39,2013-01-23 02:41:00,
2013-01-22 21:46:00,32.4,11.9,30.24,WNW,294,5.0,5.0,42,0.00,,,0.00,WeatherCatV1.11B39,2013-01-23 02:46:00,
2013-01-22 21:51:00,32.4,10.8,30.24,WNW,283,8.0,8.0,40,0.00,,,0.00,WeatherCatV1.11B39,2013-01-23 02:51:00,
2013-01-22 21:56:00,32.4,10.2,30.24,NW,314,6.0,7.0,39,0.00,,,0.00,WeatherCatV1.11B39,2013-01-23 02:56:00,
2013-01-22 22:01:00,32.5,10.3,30.24,WNW,300,4.0,6.0,39,0.00,,,0.00,WeatherCatV1.11B39,2013-01-23 03:01:00,
2013-01-22 22:06:00,32.5,10.3,30.24,WNW,288,4.0,6.0,39,0.00,,,0.00,WeatherCatV1.11B39,2013-01-23 03:06:00,
2013-01-22 22:11:00,32.5,10.3,30.24,WNW,287,5.0,5.0,39,0.00,,,0.00,WeatherCatV1.11B39,2013-01-23 03:11:00,
2013-01-22 22:16:00,32.5,10.3,30.24,WNW,288,4.0,5.0,39,0.00,,,0.00,WeatherCatV1.11B39,2013-01-23 03:16:00,
2013-01-22 22:21:00,32.5,10.3,30.24,WNW,293,4.0,8.0,39,0.00,,,0.00,WeatherCatV1.11B39,2013-01-23 03:21:00,
2013-01-22 22:26:00,32.5,9.7,30.24,WNW,293,4.0,6.0,38,0.00,,,0.00,WeatherCatV1.11B39,2013-01-23 03:26:00,
2013-01-22 22:31:00,32.5,10.3,30.24,West,269,4.0,7.0,39,0.00,,,0.00,WeatherCatV1.11B39,2013-01-23 03:31:00,
2013-01-22 22:36:00,32.5,9.2,30.24,WSW,239,4.0,6.0,37,0.00,,,0.00,WeatherCatV1.11B39,2013-01-23 03:36:00,
2013-01-22 22:41:00,32.5,9.2,30.24,WNW,287,6.0,7.0,37,0.00,,,0.00,WeatherCatV1.11B39,2013-01-23 03:41:00,
2013-01-22 22:46:00,32.5,9.2,30.24,WNW,293,4.0,5.0,37,0.00,,,0.00,WeatherCatV1.11B39,2013-01-23 03:46:00,
2013-01-22 22:51:00,32.5,9.2,30.24,West,280,4.0,5.0,37,0.00,,,0.00,WeatherCatV1.11B39,2013-01-23 03:51:00,
2013-01-22 22:56:00,32.5,9.2,30.24,West,276,8.0,11.0,37,0.00,,,0.00,WeatherCatV1.11B39,2013-01-23 03:56:00,
2013-01-22 23:01:00,32.5,9.2,30.24,WNW,290,6.0,6.0,37,0.00,,,0.00,WeatherCatV1.11B39,2013-01-23 04:01:00,
2013-01-22 23:06:00,32.4,9.1,30.24,WNW,285,6.0,7.0,37,0.00,,,0.00,WeatherCatV1.11B39,2013-01-23 04:06:00,
2013-01-22 23:11:00,32.4,9.1,30.24,West,275,5.0,9.0,37,0.00,,,0.00,WeatherCatV1.11B39,2013-01-23 04:11:00,
2013-01-22 23:16:00,32.4,9.1,30.24,West,268,4.0,8.0,37,0.00,,,0.00,WeatherCatV1.11B39,2013-01-23 04:16:00,
2013-01-22 23:21:00,32.3,9.0,30.24,West,265,4.0,9.0,37,0.00,,,0.00,WeatherCatV1.11B39,2013-01-23 04:21:00,
2013-01-22 23:26:00,32.2,9.5,30.24,WNW,294,8.0,12.0,38,0.00,,,0.00,WeatherCatV1.11B39,2013-01-23 04:26:00,
2013-01-22 23:31:00,32.1,9.4,30.24,WSW,257,5.0,11.0,38,0.00,,,0.00,WeatherCatV1.11B39,2013-01-23 04:31:00,
2013-01-22 23:36:00,32.1,8.8,30.24,WNW,286,8.0,9.0,37,0.00,,,0.00,WeatherCatV1.11B39,2013-01-23 04:36:00,
2013-01-22 23:41:00,32.1,9.4,30.24,West,276,6.0,7.0,38,0.00,,,0.00,WeatherCatV1.11B39,2013-01-23 04:41:00,
2013-01-22 23:46:00,32.0,9.3,30.24,West,265,10.0,10.0,38,0.00,,,0.00,WeatherCatV1.11B39,2013-01-23 04:46:00,
2013-01-22 23:51:00,31.9,9.8,30.24,West,267,5.0,8.0,39,0.00,,,0.00,WeatherCatV1.11B39,2013-01-23 04:51:00,
2013-01-22 23:56:00,31.9,9.8,30.24,WNW,289,8.0,11.0,39,0.00,,,0.00,WeatherCatV1.11B39,2013-01-23 04:56:00,